www.pogodaiklimat.ru

Погода и климат >> Архив погоды >> Россия >> Нижегородская область >> Павлово


ПОГОДА в Павлово

  • Прогноз погоды в Павлово
  • Монитор погоды в Павлово
  • Климат города

АРХИВ ПОГОДЫ в Павлово

Время (UTC), дата Ветер
(напр.,м/с)
 
Видим.   Явления Облачность Т
(С)
Тd
(С)
f
(%)
Тe
(С)
Тes
(С)
Комфортность P
(гПа)
Po
(гПа)
Тmin
(С)
Tmax
(С)
R
(мм)
R24
(мм)
S
(см)
09 17.11 З 4-7
{7}
50 км 9/9 300 м
[Sc]
+1.6 -0.0 89 -4 -3 1020.5 1004.0
12 17.11 З 2-4
{8}
50 км {снег} 10/10 1000 м
[Sc]
+1.2 -0.5 88 -2 -2 1020.8 1004.3
15 17.11 З 2-4
{7}
20 км {снег} 10/10 1000 м
[Sc]
+0.9 -0.2 92 -3 -3 1020.8 1004.3 +1.9 0.0
18 17.11 З 4-8
{8}
20 км {снег} 10/10 1000 м
[Sc]
+0.9 -1.7 83 -4 -4 1020.0 1003.5
21 17.11 ЮЗ 2-5
{11}
20 км 10/10 1000 м
[Sc]
0.0 -2.4 84 -4 -4 1019.3 1002.7
00 18.11 ЮЗ 1-4
{7}
20 км 10/10 1000 м
[Sc]
+0.2 -1.9 86 -2 -2 1017.8 1001.2
03 18.11 З 3-6
{8}
20 км 9/9 1000 м
[Sc]
+0.7 -1.6 85 -4 -4 1017.2 1000.8 -0.6
06 18.11 З 3-6
{8}
50 км 10/10 300 м
[Frnb]
+1.1 -1.5 83 -3 -3 1017.3 1000.9
09 18.11 З 2-4
{8}
50 км {снег} 10/8 300 м
[Frnb As op]
+1.5 +0.1 90 -2 -2 1018.0 1001.6
12 18.11 З 2-4
{7}
50 км 10/8 1000 м
[Sc As op]
+2.0 +0.4 89 -1 -1 1027.2 1001.6
15 18.11 ЮЗ 1-2
{4}
20 км 10/9 1000 м
[Sc As op]
+1.8 +0.2 89 0 0 1018.4 1002.0 +2.1 0.0
18 18.11 Ю 1-3
{3}
20 км 10/9 1000 м
[Sc As op]
+1.7 +0.3 90 -0 -0 1018.3 1001.9
21 18.11 Ю 1-4
{5}
20 км 10/6 1000 м
[Sc As op]
+1.3 -0.1 90 -1 -1 1018.0 1001.6
00 19.11 Ю 1-3
{5}
20 км 10/10 1000 м
[Sc]
+1.2 -0.5 88 -1 -1 1017.7 1001.3
03 19.11 ЮЗ 1-2
{5}
20 км слабый дождь 10/9 1000 м
[Sc As op]
+1.2 +0.7 96 -1 -1 1016.7 1000.3 +1.0 0.0
06 19.11 Ю 1-4
{5}
10 км слабый снег {дождь} 10/9 300 м
[Sc As op]
+0.8 +0.3 96 -1 -1 1016.7 1000.3 +0.7
09 19.11 Ю 1-4
{5}
20 км слабый снег 10/8 300 м
[Frnb As op]
+1.4 +0.3 92 -1 -0 1016.2 999.8
12 19.11 ЮВ 2-4
{5}
13 км слабый снег 10/8 300 м
[Frnb As op]
+1.4 +0.6 94 -2 -2 1014.7 998.3
15 19.11 Ю 1-4
{6}
20 км {снег} 10/10 1000 м
[Sc]
+1.3 +0.8 96 -1 -1 1014.1 997.7 +1.7 1
18 19.11 Ю 1-3
{6}
10 км слабый снег 10/10 300 м
[Frnb]
+1.0 +0.5 96 -1 -1 1012.7 996.3
21 19.11 ЮВ 1-4
{5}
20 км {снег} 10/10 300 м
[Frnb]
+0.9 +0.4 96 -1 -1 1011.7 995.3
00 20.11 Ю 1-4
{5}
20 км {снег} 10/10 600 м
[Sc]
+1.5 +1.0 96 -1 -1 1010.5 994.1
03 20.11 Ю 1-3
{5}
20 км слабый дождь 10/10 300 м
[Frnb]
+2.3 +1.8 96 0 0 1010.3 994.0 +0.5 1
06 20.11 З 2-4
{5}
50 км {дождь} 10/10 300 м
[Frnb]
+2.4 +1.9 96 -1 -1 1011.1 994.9
09 20.11 З 2-4
{6}
50 км 10/10 1000 м
[Sc]
+2.6 +1.0 89 -1 -1 1012.6 996.4
12 20.11 З 1-3
{4}
50 км 10/10 1000 м
[Sc]
+2.2 +0.6 89 0 0 1014.0 997.6
15 20.11 штиль 0
{3}
20 км 10/10 1000 м
[Sc]
+1.8 +0.7 92 +1 +1 1014.3 997.9 +2.9 0.0
18 20.11 штиль 0
{2}
20 км 10/10 1000 м
[Sc]
+1.8 +0.7 92 +1 +1 1013.8 997.4
21 20.11 СВ 1-3
{3}
10 км слабый снег 10/0
[As op]
+0.6 +0.1 96 -2 -2 1012.0 995.6
00 21.11 СВ 2-4
{4}
4000 м слабый снег 10/0
[As op]
+0.2 -0.1 98 -4 -4 1008.7 992.3
03 21.11 СВ 1-2
{5}
4000 м дождь {снег} 10/4 300 м
[Frnb As op]
+0.6 +0.3 98 -2 -2 1005.4 989.1 0.0 6 2
06 21.11 штиль 0
{2}
6000 м дымка {снег, дождь} 10/10 1000 м
[Sc]
+0.8 +0.5 98 -1 -1 1004.4 988.1
09 21.11 Ю 1-3
{5}
50 км слабый дождь 10/5 600 м
[Frnb As op]
+3.3 +3.0 98 +2 +2 1004.1 987.9
12 21.11 ЮВ 1-3
{5}
5000 м слабый дождь 10/10 300 м
[Frnb]
+3.3 +2.8 97 +2 +2 1004.1 987.9
15 21.11 ЮВ 2-4
{5}
20 км слабый дождь 10/10 300 м
[Frnb]
+3.0 +2.7 98 -0 -0 1004.0 987.8 +3.6 7
18 21.11 Ю 1-4
{4}
4000 м слабый дождь 10/0
[As op]
+3.3 +3.0 98 +2 +2 1003.5 987.4
21 21.11 штиль 0
{4}
20 км {дождь} 9/9 1000 м
[Sc]
+3.6 +3.1 97 +2 +2 1003.5 987.4
00 22.11 ЮВ 1-2
{3}
10 км слабый дождь 10/4 300 м
[Frnb As op]
+3.5 +3.3 99 +2 +2 1003.8 987.6
03 22.11 штиль 0
{3}
10 км в посл. час дождь 10/0
[As op]
+3.3 +3.0 98 +2 +2 1003.5 987.4 +2.8 4
06 22.11 штиль 0
{2}
3000 м дымка 10/0
[As op]
+3.0 +2.5 97 +2 +2 1002.8 986.7
09 22.11 штиль 0
{3}
1500 м слабая морось {туман} 10/10 300 м
[St]
+2.8 +2.5 98 +2 +2 1002.6 986.5
12 22.11 штиль 0
{4}
19 км {морось, туман} 10/10 300 м
[St]
+1.9 +1.6 98 +1 +1 1002.1 985.9
15 22.11 штиль 0
{2}
20 км {дождь} 10/8 1000 м
[Sc As op]
+1.6 +1.3 98 0 0 1002.6 986.4 +3.5 0.3
18 22.11 З 3-4
{4}
4000 м слабый дождь 10/0
[As op]
+1.5 +1.2 98 -3 -3 1003.3 987.1
21 22.11 СЗ 3-6
{6}
20 км слабый ливневой снег {дождь} 10/8 600 м
[Cb cap As op]
-0.2 -0.5 98 -5 -5 1004.9 988.5
00 23.11 СЗ 4-7
{9}
20 км {ливн. осадки, дождь} 10/10 1000 м
[Sc]
-1.8 -2.0 99 -8 -8 1005.9 989.4
03 23.11 СЗ 4-7
{9}
10 км слабый снег 10/8 1000 м
[Sc As op]
-3.0 -3.4 97 -9 -9 1007.6 991.1 -3.2 2 1
06 23.11 СЗ 4-6
{8}
3400 м снег 10/8 300 м
[Frnb As op]
-3.8 -4.6 94 -10 -10 1009.9 993.2 -3.9
09 23.11 СЗ 4-7
{8}
12 км слабый снег 10/8 300 м
[Frnb As op]
-3.3 -4.0 95 -10 -10 1011.6 995.0
12 23.11 СЗ 4-6
{11}
50 км {снег} 10/10 1000 м
[Sc]
-3.8 -4.6 94 -10 -10 1013.4 996.7
15 23.11 СЗ 3-6
{8}
20 км слабый снег 10/0
[As op]
-4.4 -5.3 93 -10 -10 1016.1 999.3 -2.8 1
18 23.11 СЗ 3-5
{7}
20 км слабый снег 10/10 1000 м
[Sc]
-5.0 -6.0 93 -11 -11 1017.9 1001.1
21 23.11 СЗ 2-5
{8}
10 км слабый снег 10/10 300 м
[Frnb]
-5.7 -6.4 95 -10 -10 1020.0 1003.0
00 24.11 С 2-4
{6}
20 км слабый снег 10/10 300 м
[Frnb]
-5.6 -6.3 95 -10 -10 1021.6 1004.6
03 24.11 С 2-4
{5}
20 км слабый снег 10/10 300 м
[Frnb]
-5.6 -6.7 92 -10 -10 1022.7 1005.7 -6.0 1 3
06 24.11 СЗ 2-3
{5}
50 км в посл. час снег 10/10 1000 м
[Sc]
-5.5 -6.6 92 -10 -10 1024.0 1007.0

 

Местоположение метеостанции Павлово (Нижегородская область, Россия): широта 55.95 долгота 43.03 высота над уровнем моря 131 м.

В архиве по умолчанию представлена погода в Павлово за последнюю неделю. Архивные данные за месяц целиком и за предыдущие месяцы, начиная с января 2011 года, Вы можете получить, выбрав интересующий диапазон дат из раскрывающегося списка и нажав кнопку "Ввод!".

Внимание! Время в таблицах - всемирное. Для получения местного времени необходимо прибавить поправку, которая в Павлово равна 3 ч.

Смотрите также архив погоды в соседних городах и на ближайших метеорологических станциях:

Погода в Нижнем Новгороде аэропорт (Нижегородская область, Россия) (55 км)
Погода в Вязниках (Владимирская область, Россия) (60 км)
Погода в Дальнем Константиново (Нижегородская область, Россия) (68 км)
Погода в Нижнем Новгороде (Нижегородская область, Россия) (70 км)
Погода в Муроме (Владимирская область, Россия) (74 км)
Погода в Арзамасе (Нижегородская область, Россия) (80 км)
Погода в Волжской ГМО (Нижегородская область, Россия) (85 км)
Погода в Выксе (Нижегородская область, Россия) (90 км)
Погода в Лысково (Нижегородская область, Россия) (125 км)
Погода в Семенове (Нижегородская область, Россия) (126 км)

Пояснения к столбцам:

Ветер - указаны скорость ветра в м/с - средняя за 10 мин, порывы в срок и между сроками (в фигурных скобках) и направление, откуда дует ветер: С - северный, СВ - северо-восточный, В - восточный, ЮВ - юго-восточный, Ю - южный, ЮЗ - юго-западный, З - западный, СЗ - северо-западный.
Видимость - горизонтальная дальность видимости в метрах или километрах. При видимости от 1 до 10 км при отсутствии осадков обычно наблюдается дымка, при ухудшении видимости до 1 км и менее - туман. В сухую погоду видимость может ухудшаться дымом, пылью или мглою.
Явления - указаны атмосферные явления, наблюдавшиеся в срок или в последний час перед сроком; фигурными скобками обозначены явления, наблюдавшиеся между сроками (за 1-3 часа до срока); квадратными скобками обозначены град или гололедные отложения с указанием их диаметра в мм.
Облачность - указаны через наклонную черту общая и нижняя облачность в баллах и высота нижней границы облаков в метрах; квадратными скобками обозначены формы облаков: Ci - перистые, Cs - перисто-слоистые, Cc - перисто-кучевые, Ac - высококучевые, As - высокослоистые, Sc - слоисто-кучевые, Ns - слоисто-дождевые, Cu - кучевые, Cb - кучево-дождевые. Подробнее классификацию облаков см. в Атласе облаков (PDF).
T - Температура воздуха - температура, измеренная на высоте 2 м над землей.
Td - Температура точки росы - температура, при понижении до которой содержащийся в воздухе водяной пар достигнет насыщения.
f - Относительная влажность воздуха - влажноcть воздуха, измеренная на высоте 2 м над землей.
Te - Эффективная температура - температура, которую ощущает одетый по сезону человек в тени. Характеристика душности погоды. При расчете учитывается влияние влажности воздуха и скорости ветра на теплоощущения человека.
Tes - Эффективная температура на солнце - температура, которую ощущает человек, с поправкой на солнечный нагрев. Характеристика знойности погоды. Зависит от высоты солнца над горизонтом, облачности и скорости ветра. Ночью, в пасмурную погоду, а также при ветре 12 м/с и более поправка равна нулю.
P - Атмосферное давление - приведенное к уровню моря атмосферное давление.
Po - Атмосферное давление - измеренное на уровне метеостанции атмосферное давление.
Tmin - Минимальная температура - минимум температуры воздуха на высоте 2 м над землей.
Tmax - Максимальная температура - максимум температуры воздуха на высоте 2 м над землей.
R - Количество осадков - Количество выпавших осадков за период времени, мм. При наведении курсора мыши на число - период времени, за который выпало указанное количество осадков.
R24 - Количество осадков - Количество выпавших осадков за 24 часа, мм.
S - Снежный покров - Высота снежного покрова, см. При наведении курсора мыши на число - состояние снежного покрова и степень покрытия местности в баллах.